Weather History for KMYP - October, 2012

Change the Weather History Date:

Wednesday, October 17, 2012

  Actual Average (KGUC) Record (KGUC)
Temperature  
Mean Temperature 30 °F -  
Max Temperature 35 °F 56 °F 71 °F (2003)
Min Temperature 24 °F 21 °F 10 °F (1999)
Degree Days  
Heating Degree Days 36    
Moisture  
Dew Point 4 °F    
Average Humidity 37    
Maximum Humidity 93    
Minimum Humidity 18    
Precipitation  
Precipitation 0.00 in - - ()
Sea Level Pressure  
Sea Level Pressure 30.20 in    
Wind  
Wind Speed 46 mph (West)    
Max Wind Speed 56 mph    
Max Gust Speed 67 mph    
Averages and records for this station are not official NWS values.
T = Trace of Precipitation, MM = Missing Value Source: NWS Daily Summary

Daily Weather History Graph

Daily Weather History Graph

Search for Another Location

Airport or City:

Trip Planner

Search our weather history database for the weather conditions in past years. The results will help you decide how hot, cold, wet, or windy it might be!

Date:

Astronomy

Oct. 17, 2012 Rise Set
Actual Time 7:16 AM MDT 6:23 PM MDT
Civil Twilight 6:50 AM MDT 6:50 PM MDT
Nautical Twilight 6:19 AM MDT 7:21 PM MDT
Astronomical Twilight 5:48 AM MDT 7:51 PM MDT
Moon 9:52 AM MDT (10/17) 8:04 PM MDT (10/17)
Length of Visible Light 12h 00m
Length of Day
11h 06m
Waxing Crescent, 7% of the Moon is Illuminated
Oct 17
Waxing Crescent
Oct 21
First Quarter
Oct 29
Full
Nov 6
Last Quarter
Nov 13
New

Hourly Weather History & Observations

Time (MDT) Temp. Windchill Dew Point Humidity Pressure Visibility Wind Dir Wind Speed Gust Speed Precip Events Conditions
12:14 AM 35.6 °F 19.4 °F 26.6 °F 70% 30.10 in - West 50.6 mph 56.4 mph N/A   Overcast
12:34 AM 35.6 °F 19.4 °F 26.6 °F 70% 30.09 in - West 50.6 mph 61.0 mph N/A   Overcast
12:54 AM 35.6 °F 20.3 °F 26.6 °F 70% 30.09 in - West 43.7 mph 58.7 mph N/A   Overcast
1:14 AM 33.8 °F 18.6 °F 26.6 °F 75% 30.11 in - West 38.0 mph 59.8 mph N/A   Overcast
1:34 AM 33.8 °F 18.3 °F 28.4 °F 81% 30.12 in - West 40.3 mph - N/A   Overcast
1:54 AM 32.0 °F - 30.2 °F 93% 30.12 in - North - - N/A   Unknown
2:14 AM 32.0 °F - 30.2 °F 93% 30.12 in - North - - N/A   Overcast
2:34 AM 32.0 °F - 28.4 °F 87% 30.12 in - North - - N/A   Unknown
2:54 AM 32.0 °F - 24.8 °F 75% 30.11 in - North - - N/A   Overcast
3:14 AM 32.0 °F 14.9 °F 21.2 °F 64% 30.09 in - West 46.0 mph - N/A   Scattered Clouds
3:34 AM 30.2 °F - 19.4 °F 64% 30.10 in - North - - N/A   Clear
3:54 AM 30.2 °F - 15.8 °F 55% 30.09 in - North - - N/A   Clear
4:14 AM 30.2 °F - 10.4 °F 44% 30.08 in - North - - N/A   Clear
4:34 AM 28.4 °F - 8.6 °F 43% 30.11 in - North - - N/A   Clear
4:54 AM 28.4 °F - 5.0 °F 37% 30.11 in - North - - N/A   Clear
5:14 AM 28.4 °F - 1.4 °F 31% 30.09 in - North - - N/A   Clear
5:54 AM 28.4 °F - 5.0 °F 37% 30.10 in - North - - N/A   Clear
6:14 AM 26.6 °F - 6.8 °F 43% 30.11 in - North - - N/A   Clear
6:34 AM 26.6 °F - 10.4 °F 51% 30.12 in - North - - N/A   Clear
6:54 AM 26.6 °F - 6.8 °F 43% 30.13 in - North - - N/A   Clear
7:14 AM 24.8 °F - 6.8 °F 46% 30.12 in - North - - N/A   Clear
7:34 AM 24.8 °F - 5.0 °F 43% 30.12 in - North - - N/A   Clear
7:54 AM 24.8 °F - 3.2 °F 40% 30.13 in - North - - N/A   Clear
8:14 AM 24.8 °F - 3.2 °F 40% 30.16 in - North - - N/A   Clear
8:34 AM 24.8 °F - 1.4 °F 36% 30.17 in - North - - N/A   Clear
8:54 AM 24.8 °F - -0.4 °F 34% 30.17 in - North - - N/A   Clear
9:14 AM 24.8 °F - -0.4 °F 34% 30.17 in - North - - N/A   Clear
9:34 AM 24.8 °F - -2.2 °F 31% 30.17 in - North - - N/A   Clear
9:54 AM 26.6 °F - -4.0 °F 26% 30.18 in - North - - N/A   Clear
10:14 AM 26.6 °F - -5.8 °F 24% 30.20 in - North - - N/A   Clear
10:34 AM 26.6 °F - -4.0 °F 26% 30.20 in - North - - N/A   Clear
10:54 AM 28.4 °F - -7.6 °F 21% 30.22 in - North - - N/A   Clear
11:14 AM 28.4 °F - -7.6 °F 21% 30.21 in - North - - N/A   Clear
11:34 AM 28.4 °F - -5.8 °F 23% 30.22 in - North - - N/A   Clear
11:54 AM 28.4 °F 10.6 °F -5.8 °F 23% 30.22 in - West 41.4 mph - N/A   Clear
12:14 PM 28.4 °F 9.7 °F -5.8 °F 23% 30.22 in - West 47.2 mph 56.4 mph N/A   Clear
12:34 PM 30.2 °F 13.5 °F -4.0 °F 23% 30.22 in - West 39.1 mph 50.6 mph N/A   Clear
12:54 PM 30.2 °F 13.3 °F -4.0 °F 23% 30.22 in - West 40.3 mph 50.6 mph N/A   Clear
1:14 PM 32.0 °F 16.2 °F -4.0 °F 21% 30.21 in - West 38.0 mph 55.2 mph N/A   Clear
1:34 PM 32.0 °F 15.8 °F -5.8 °F 20% 30.21 in - West 40.3 mph 52.9 mph N/A   Clear
1:54 PM 32.0 °F 15.2 °F -4.0 °F 21% 30.20 in - West 43.7 mph 58.7 mph N/A   Clear
2:14 PM 33.8 °F 17.8 °F -5.8 °F 18% 30.20 in - West 43.7 mph 57.5 mph N/A   Clear
2:34 PM 33.8 °F 16.3 °F -4.0 °F 20% 30.18 in - West 55.2 mph 63.3 mph N/A   Clear
2:54 PM 32.0 °F 13.6 °F -4.0 °F 21% 30.19 in - West 56.4 mph 66.7 mph N/A   Clear
3:14 PM 33.8 °F 16.9 °F 1.4 °F 25% 30.20 in - West 50.6 mph 64.4 mph N/A   Clear
3:34 PM 33.8 °F 16.9 °F 1.4 °F 25% 30.20 in - West 50.6 mph 61.0 mph N/A   Clear
3:54 PM 33.8 °F 17.5 °F -0.4 °F 23% 30.23 in - West 46.0 mph 58.7 mph N/A   Clear
4:14 PM 33.8 °F 16.3 °F -0.4 °F 23% 30.22 in - West 55.2 mph 65.6 mph N/A   Clear
4:34 PM 32.0 °F 14.4 °F -0.4 °F 25% 30.23 in - West 49.5 mph 65.6 mph N/A   Clear
4:54 PM 32.0 °F 15.1 °F -0.4 °F 25% 30.24 in - West 44.9 mph 58.7 mph N/A   Clear
5:14 PM 32.0 °F 15.4 °F -0.4 °F 25% 30.25 in - West 42.6 mph 57.5 mph N/A   Clear
5:34 PM 32.0 °F 16.2 °F -0.4 °F 25% 30.25 in - West 38.0 mph 50.6 mph N/A   Clear
5:54 PM 32.0 °F 14.4 °F -2.2 °F 23% 30.24 in - West 49.5 mph 64.4 mph N/A   Clear
6:14 PM 32.0 °F 14.6 °F -4.0 °F 21% 30.24 in - West 48.3 mph 57.5 mph N/A   Clear
6:34 PM 30.2 °F 11.9 °F -4.0 °F 23% 30.25 in - West 49.5 mph - N/A   Clear
6:54 PM 30.2 °F - -4.0 °F 23% 30.27 in - North - - N/A   Clear
7:14 PM 30.2 °F - -4.0 °F 23% 30.28 in - North - - N/A   Clear
7:34 PM 28.4 °F 10.2 °F -4.0 °F 25% 30.28 in - West 43.7 mph - N/A   Clear
7:54 PM 28.4 °F - -4.0 °F 25% 30.28 in - North - - N/A   Clear
8:14 PM 28.4 °F - -2.2 °F 27% 30.28 in - North - - N/A   Clear
8:34 PM 28.4 °F - -2.2 °F 27% 30.28 in - North - - N/A   Clear
8:54 PM 28.4 °F 9.3 °F -2.2 °F 27% 30.28 in - West 49.5 mph - N/A   Clear
9:14 PM 28.4 °F - -2.2 °F 27% 30.27 in - North - - N/A   Clear
9:34 PM 28.4 °F - -2.2 °F 27% 30.29 in - North - - N/A   Clear
9:54 PM 28.4 °F - -0.4 °F 29% 30.31 in - North - - N/A   Clear
10:14 PM 26.6 °F - -0.4 °F 31% 30.30 in - North - - N/A   Clear
10:34 PM 26.6 °F - -0.4 °F 31% 30.31 in - North - - N/A   Clear
10:54 PM 26.6 °F - -0.4 °F 31% 30.31 in - North - - N/A   Clear
11:14 PM 26.6 °F - -0.4 °F 31% 30.32 in - North - - N/A   Clear
11:34 PM 26.6 °F - -0.4 °F 31% 30.32 in - North - - N/A   Clear
11:54 PM 26.6 °F - -0.4 °F 31% 30.31 in - North - - N/A   Clear